Location: Newark
(48.5178°N, 4.2361°E)
Time: 19:18:08
(UTC+00:00)

N. Korean satellite - Visible Passes

Search period start: 07 March 2021 00:00
Search period end: 17 March 2021 00:00
Orbit: 451 x 502 km, 97.2° (Epoch: 06 March)

Date Brightness Start Highest point End Pass type
(mag) Time Alt. Az. Time Alt. Az. Time Alt. Az.
07 Mar 6.8 05:11:05 10° NNE 05:14:39 74° ESE 05:18:15 10° S visible
08 Mar 8.4 04:44:30 10° NNE 04:47:49 34° E 04:51:08 10° SSE visible
09 Mar 9.6 04:18:21 10° NE 04:20:52 18° E 04:23:24 10° SE visible
10 Mar 6.5 05:24:00 10° N 05:27:35 77° WNW 05:31:13 10° SSW visible
11 Mar 7.6 04:57:16 10° NNE 05:00:47 50° E 05:04:19 10° S visible
12 Mar 9.1 04:30:51 10° NE 04:33:52 25° E 04:36:55 10° SSE visible
13 Mar 9.9 04:05:07 10° ENE 04:06:51 13° E 04:08:36 10° ESE visible
14 Mar 6.9 05:10:03 10° NNE 05:13:41 73° ESE 05:17:20 10° S visible
15 Mar 8.4 04:43:27 10° NNE 04:46:48 34° E 04:50:10 10° SSE visible
16 Mar 9.6 04:17:15 10° NE 04:19:49 18° E 04:22:23 10° SE visible
